map of ESK home
ESK - Airport
Location
City:  Eskisehir, Eskisehir, Turkey
ICAO:LTBI
IATA:ESK

Details
Type:Airport (Aerodrome, Airfield)
Use:Military
Latitude:3947'03"N (39.784138)
Longitude:3034'56"E (30.582111)
Datum:WGS 1984
Elevation:2581 ft (787 m)
Variation:5.49E (WMM2015 magnetic declination)
0.10 annual change
Runways:1
Longest:10006 × 150 ft (3050 × 45.5 m), paved

Time
Time Zone:UTC+3
Local Time:

Weather
METAR:LTBI 220650Z 31004KT 260V360 9999 FEW040 20/14 Q1015 NOSIG RMK RWY09 29005KT 190V340

Related Locations
Nearby:
Farthest:RVV: 11330 mi / 18233 km
Raivavae, Tubuai Islands, Austral Islands, PF

Find:

   beyond  
but within

Other Information
Maps:
NOTAMs:
Links:
Sources:

  
  • flag of Turkey
  

Sectional Chart

Flight Planning
at skyvector.com

Satellite Image

Google Maps Satellite view

 

Copyright © 2004-2018 Karl L. Swartz. All rights reserved.
The Great Circle Mapper name and logo are trademarks of the Great Circle Mapper.
All other trademarks mentioned herein belong to their respective owners.
Please see credits for attibutions and further copyright information.

  Follow gcmap on Facebook Follow gcmap on Twitter Follow gcmap on Google+ GCmap on LinkedIn

hCard Microformat

Geo Microformat